RH
43 42 42 43 43 42 40 38 38 40 42 43 44 45 43 40 37 35 35 37 39 42 45 46 49 53 57 60 63 65 68 70 70 70 70 69 67 62 58 54 52 53 58 63 66 64 59 52 43 36 31 28 29 31 30 27 23 20 20 21 20 20 19 17 16 14 14 17 17 16 16 17 16 15 14 13 11 9 8 7 5 5 4 4 4
45 44 42 42 42 41 38 38 39 41 43 44 46 48 47 44 41 40 40 41 43 45 47 47 49 53 55 58 61 66 71 73 72 72 73 73 71 66 60 57 59 64 70 71 69 64 56 47 40 33 29 30 34 35 33 28 24 22 23 22 21 20 18 17 16 16 18 19 18 16 15 15 13 12 11 9 8 7 5 4 3 4 6 7 8
45 45 44 43 42 40 38 39 41 43 45 45 47 49 48 46 45 44 43 44 47 50 52 54 55 56 58 60 64 69 74 76 73 73 77 79 76 71 66 66 72 76 75 71 67 61 52 43 37 33 30 34 39 39 34 29 26 25 24 23 22 19 17 17 18 20 21 20 18 15 14 13 11 9 8 6 5 4 3 4 7 12 16 18 18
42 42 42 40 38 37 37 38 39 41 44 45 46 46 45 46 47 47 46 47 52 57 61 65 66 66 68 71 75 80 82 80 78 79 84 86 82 78 76 79 83 81 73 67 61 54 47 43 37 32 33 38 42 40 36 31 28 27 25 23 20 18 17 17 18 21 21 18 17 15 13 11 8 7 5 4 3 4 7 14 22 26 26 25 25
41 41 39 38 37 37 36 36 36 38 40 43 44 44 43 46 49 51 50 50 56 65 72 75 75 76 79 84 89 91 89 87 87 90 93 93 91 88 86 85 83 76 67 60 56 52 50 46 39 35 38 43 44 41 37 33 29 27 25 22 19 17 17 16 18 20 19 17 15 12 10 8 6 5 4 4 9 18 27 34 36 33 29 31 35
41 41 40 38 36 35 36 37 37 38 39 40 42 42 43 46 50 52 53 55 61 70 78 81 82 86 91 96 99 98 96 96 97 98 99 100 99 93 87 81 75 68 62 59 58 58 56 49 42 43 46 47 45 41 37 33 30 27 25 22 19 17 16 16 17 18 17 16 13 10 8 5 4 5 7 18 34 45 49 48 43 41 41 42 45
41 40 39 37 36 37 39 39 39 38 38 38 39 42 44 47 51 54 59 64 69 76 84 89 92 96 99 101 102 101 102 103 101 100 102 102 97 87 79 75 69 64 62 61 63 62 58 54 53 54 54 49 44 40 35 32 30 27 25 22 19 17 15 15 16 17 16 13 10 8 6 4 5 9 21 41 58 65 63 54 48 58 66 60 55
39 37 37 38 39 40 39 39 39 38 37 37 38 41 46 50 56 64 72 77 81 86 92 97 99 100 100 101 102 102 102 101 100 101 101 97 89 82 78 73 66 63 63 63 65 64 62 63 65 63 57 50 44 39 35 33 30 29 27 23 19 17 15 14 15 16 14 11 9 6 3 5 12 21 38 56 62 69 77 66 53 66 80 73 65
35 34 35 38 39 38 37 37 39 38 36 37 40 47 55 63 73 81 86 89 93 97 101 103 102 101 100 100 100 101 100 99 100 101 99 94 89 83 76 68 64 65 67 69 70 71 73 74 72 66 57 50 44 40 36 35 33 30 26 22 19 16 14 14 15 15 12 9 7 5 4 11 24 36 50 60 57 63 80 77 64 75 83 72 71
34 33 36 39 39 38 39 42 44 44 43 45 52 62 71 79 84 86 87 89 93 98 100 100 98 98 99 99 99 100 100 99 101 101 100 96 90 81 73 71 74 76 78 81 82 82 83 80 73 65 57 51 46 41 38 36 32 27 23 19 17 15 14 15 15 13 10 7 5 4 8 21 38 50 55 58 58 64 80 81 74 88 91 71 72
34 36 41 45 46 48 52 55 55 56 59 65 73 81 84 83 79 76 75 76 77 80 82 85 91 97 100 100 100 101 100 100 101 102 101 97 91 87 86 88 89 88 89 91 91 90 87 80 72 63 56 51 46 41 38 33 28 23 19 16 15 16 16 16 14 11 8 6 3 6 17 30 46 57 58 57 60 66 78 79 75 94 102 79 74
38 46 53 56 57 61 64 65 64 66 70 75 81 83 80 77 73 71 70 70 70 74 79 88 97 101 101 100 101 100 100 100 101 101 100 99 95 93 94 93 90 91 93 93 93 91 85 76 68 60 54 50 44 40 36 29 24 20 16 16 16 17 18 16 13 9 6 5 4 10 26 37 43 53 60 61 61 62 69 73 76 94 104 86 80
48 60 70 73 73 73 71 68 66 64 63 65 68 68 66 66 66 65 67 69 74 83 93 99 101 100 100 100 100 101 100 100 100 100 100 98 95 92 89 87 89 91 92 91 92 89 79 71 64 58 53 48 41 36 31 24 21 16 15 17 17 17 18 14 11 8 5 7 13 23 36 42 41 48 56 59 58 58 64 70 76 90 101 93 87
64 77 86 88 85 79 73 68 63 59 57 56 54 53 52 54 55 60 69 79 88 96 101 101 100 100 101 100 100 100 101 101 100 100 100 97 93 89 86 86 89 90 91 92 90 83 74 68 63 56 50 43 35 29 24 20 18 15 14 16 15 16 16 11 10 7 4 13 29 40 46 47 47 50 56 60 58 58 63 69 74 85 98 99 91
77 89 95 96 93 87 81 74 66 62 58 52 49 48 50 53 57 63 73 86 97 101 100 100 101 100 99 99 100 100 100 101 101 100 100 98 94 88 86 88 91 91 93 93 86 78 71 66 59 52 44 35 27 22 19 17 15 14 14 15 15 16 13 9 9 5 5 24 45 54 59 63 65 64 68 73 72 69 69 69 72 82 93 99 93
73 79 79 79 80 81 80 74 66 59 51 48 54 62 66 68 72 77 84 94 100 100 99 99 99 98 98 98 100 101 100 101 101 100 100 100 96 92 91 94 96 96 96 92 81 72 66 59 51 43 34 27 21 19 17 15 14 14 14 14 15 14 11 9 8 4 12 35 53 59 66 75 77 74 76 81 82 84 83 74 73 82 89 92 91
65 65 65 66 67 67 66 63 56 50 51 61 76 83 82 78 76 81 87 90 89 88 91 95 94 95 99 100 99 100 101 101 101 101 101 100 99 97 98 100 100 100 96 86 74 66 57 48 40 33 26 22 19 17 16 15 15 15 14 14 14 12 9 8 6 6 22 47 61 65 66 67 65 65 70 77 82 88 88 75 73 85 89 87 85
68 71 73 72 70 67 61 55 51 54 68 86 97 97 91 84 79 83 87 86 82 80 81 87 93 96 98 99 99 99 99 100 100 101 101 101 100 100 100 101 101 98 92 80 68 57 46 37 30 25 22 19 17 17 17 17 16 15 14 14 13 10 9 7 6 13 35 61 75 75 70 68 69 67 68 75 83 90 89 75 69 77 83 85 85
71 76 77 72 69 65 59 55 62 78 91 96 96 94 93 92 93 94 92 85 74 65 63 72 86 96 98 98 99 99 99 100 100 100 101 100 100 100 100 100 98 94 86 74 60 48 37 29 25 22 20 18 18 19 19 18 18 16 15 14 11 9 8 6 7 21 44 68 79 75 71 80 92 89 78 76 80 88 92 84 73 69 69 76 84
65 71 76 75 70 64 60 60 68 77 76 70 70 73 77 83 90 91 87 76 59 54 60 68 76 88 99 103 102 99 99 100 100 100 101 100 100 100 100 99 95 89 80 67 53 41 32 26 23 21 20 19 19 20 20 20 19 16 14 13 10 9 8 5 12 32 53 67 72 69 73 91 105 103 95 86 79 81 90 91 81 67 60 64 77
61 71 80 84 77 65 57 54 50 47 45 47 53 54 50 54 60 62 67 66 60 63 66 56 49 60 80 97 103 101 99 100 100 100 100 100 100 100 101 99 93 84 74 60 47 37 29 25 23 21 20 20 21 21 20 20 18 14 14 12 8 8 7 4 16 42 60 66 64 64 78 96 101 100 102 99 88 83 86 89 81 67 56 57 70
62 70 78 85 81 66 54 48 42 38 39 44 50 45 36 32 31 35 43 47 51 62 60 40 31 42 64 87 102 103 100 99 100 100 100 100 100 101 102 99 90 79 68 54 42 34 28 25 23 21 22 22 22 22 21 18 16 13 12 11 7 7 7 7 22 49 67 70 65 65 79 92 93 94 99 101 102 98 86 77 72 63 52 51 65
68 70 76 79 73 63 56 51 45 38 34 39 45 43 38 28 20 26 35 32 38 56 53 31 23 37 63 90 102 101 100 100 99 100 100 100 101 102 101 95 83 72 61 49 40 34 27 25 24 23 24 24 22 21 19 15 14 13 11 9 7 6 7 13 32 58 74 75 69 68 79 89 91 90 88 87 97 104 93 75 64 58 52 50 61
73 72 78 78 72 67 62 55 48 38 31 34 38 40 41 30 16 21 26 23 36 55 45 25 29 50 79 100 101 98 100 100 99 101 101 100 102 101 97 88 76 67 58 48 40 34 28 27 25 24 25 24 21 19 16 12 13 12 9 8 7 5 8 21 46 71 82 80 73 72 83 95 96 92 86 81 85 93 97 88 68 54 53 54 59
70 68 71 73 73 70 63 56 52 44 34 30 33 39 42 31 19 23 30 38 53 54 35 33 56 78 93 101 99 99 101 100 100 101 100 101 102 99 91 82 73 65 58 48 40 34 30 29 27 26 26 23 20 17 13 12 13 10 8 7 6 7 11 27 55 78 82 79 76 77 87 100 101 93 91 92 88 84 90 96 81 59 52 56 62
52 50 50 52 56 55 51 48 48 46 36 25 25 36 45 40 30 27 42 69 76 47 25 42 68 82 92 99 99 100 101 100 100 101 100 102 102 96 88 81 73 67 59 49 42 37 33 31 29 27 25 21 17 14 11 12 11 8 8 6 6 13 25 41 64 80 80 77 78 81 89 100 104 97 92 95 95 88 85 90 88 73 58 55 62
37 35 34 35 36 36 36 35 38 42 36 21 17 26 40 54 53 37 45 76 72 36 31 58 72 77 92 102 100 99 100 100 101 100 101 103 101 95 88 82 75 70 61 50 43 38 35 32 30 26 22 18 16 13 12 12 10 7 8 5 6 24 47 62 74 80 78 77 80 84 90 98 104 104 100 99 101 101 95 88 86 84 70 55 58
35 31 28 28 27 26 26 25 24 28 25 17 16 21 28 45 56 50 54 64 47 33 59 87 87 86 96 100 99 100 101 100 101 101 102 102 100 95 89 82 77 70 61 51 43 39 36 32 28 25 20 17 15 13 12 12 8 7 7 4 12 40 66 78 84 83 77 78 82 85 92 99 103 104 104 103 101 105 106 94 84 87 80 59 55
38 34 32 32 30 29 32 31 27 24 18 14 15 18 22 30 35 46 63 57 31 43 86 103 97 98 100 98 100 102 99 100 101 101 102 102 98 94 88 81 76 68 59 51 44 38 35 31 26 23 19 16 15 13 12 10 7 7 6 5 23 56 76 84 90 89 81 78 80 85 93 100 103 103 102 103 101 101 105 97 83 85 81 61 55
47 44 45 46 46 50 58 59 52 39 26 18 15 14 25 32 24 36 66 57 30 53 96 102 96 103 102 97 101 101 98 101 102 101 103 101 96 93 88 82 76 67 58 53 45 38 35 30 26 22 18 16 14 12 11 9 6 7 5 8 34 68 82 87 93 94 88 83 80 84 94 99 102 103 101 102 103 102 105 98 82 78 75 61 54
61 60 65 66 67 73 78 74 67 52 34 25 18 14 27 36 25 40 80 74 43 63 101 102 96 103 101 98 102 100 98 101 101 101 103 98 94 94 89 83 76 67 59 53 45 38 35 30 24 21 17 15 13 11 9 8 6 6 4 10 41 75 88 92 97 97 97 93 85 87 95 98 100 104 102 101 103 103 106 102 83 70 67 59 53
85 87 89 86 82 79 70 58 55 49 35 25 18 18 36 47 35 51 95 96 67 76 102 102 97 102 101 99 102 100 99 101 102 102 101 97 96 95 88 81 74 65 58 52 44 38 35 28 22 19 16 13 12 9 7 6 5 6 5 13 43 78 94 98 100 100 101 99 92 92 98 97 99 103 101 101 104 105 107 104 84 64 58 55 51
100 101 103 104 94 73 50 38 37 36 28 20 16 30 60 69 52 61 97 105 87 89 103 102 99 101 100 99 101 100 99 101 102 103 101 98 98 95 85 77 71 63 56 50 42 37 32 25 20 18 14 11 10 7 6 7 5 6 11 23 48 78 96 102 102 101 102 100 94 93 95 95 98 101 100 101 103 104 107 103 81 59 52 49 49
99 101 106 103 81 47 26 24 25 23 19 16 23 54 86 84 63 70 96 104 98 99 102 100 100 101 100 100 101 100 99 101 103 103 101 99 97 91 81 74 69 61 54 47 40 34 28 20 17 15 11 9 9 5 5 7 6 9 21 37 54 76 96 104 103 102 103 101 97 96 94 93 95 98 99 101 101 102 107 102 78 55 47 45 46
101 98 87 67 41 20 15 17 15 14 18 23 40 76 100 91 79 88 101 102 100 102 101 99 100 101 100 100 101 100 100 102 103 103 101 98 94 86 78 72 65 57 51 44 36 29 22 17 14 12 8 7 7 5 5 7 11 21 38 51 58 73 93 103 103 103 103 102 100 99 96 95 95 97 100 102 100 100 105 101 76 51 42 42 43
84 63 41 24 14 10 10 10 9 13 21 34 58 89 103 98 96 101 99 94 96 100 101 100 100 100 100 100 100 100 101 102 103 102 99 95 89 82 75 69 62 54 46 38 29 23 18 15 12 9 7 6 5 6 7 8 16 38 64 72 66 71 88 99 100 101 103 103 102 101 99 98 99 99 100 102 100 100 104 100 75 48 38 39 40
38 20 11 8 8 7 6 7 10 17 29 49 74 92 97 95 96 96 94 94 97 99 101 101 100 100 101 100 100 101 101 101 102 101 97 92 86 80 74 67 58 49 40 31 24 19 15 12 10 7 6 6 5 6 9 10 20 49 82 92 81 76 86 97 100 99 98 98 100 101 101 101 100 100 100 101 100 100 104 97 73 47 37 37 37
9 7 7 6 5 4 5 7 14 31 56 80 92 92 91 94 99 100 100 100 100 99 100 101 100 100 100 99 100 102 101 101 101 99 96 91 85 79 72 62 53 44 34 26 22 17 12 10 9 6 6 6 5 7 11 13 23 52 86 101 95 86 86 94 101 102 97 94 96 98 100 101 101 100 101 101 99 101 103 94 71 48 37 35 36
6 5 3 2 5 12 21 32 48 68 88 97 96 94 98 103 102 95 88 86 90 97 101 101 100 100 100 100 102 102 100 101 101 98 93 88 81 74 66 56 46 38 30 23 19 16 12 9 8 6 6 7 6 9 14 15 24 50 83 101 100 94 89 90 98 103 101 98 98 99 100 100 100 100 102 102 100 101 102 91 70 51 39 35 37
7 5 4 11 27 47 64 80 93 100 99 96 95 99 104 103 95 88 85 89 96 101 102 100 100 100 99 100 102 102 101 101 100 94 88 82 76 68 60 50 40 32 26 22 18 14 11 9 7 6 7 7 7 11 17 18 23 46 78 99 104 100 94 91 95 101 102 100 99 100 101 100 98 100 102 101 100 102 100 87 70 55 42 35 38
17 16 31 54 76 90 97 100 103 103 100 100 102 103 102 99 96 96 98 101 102 101 100 100 100 99 100 102 103 103 102 99 95 90 83 77 71 63 53 43 35 29 24 21 18 14 11 9 8 7 7 8 10 14 19 20 24 44 75 98 105 104 100 97 97 100 101 100 99 100 101 100 98 99 101 100 100 102 99 85 68 55 44 37 38
43 41 68 95 102 101 101 101 101 101 101 101 101 102 101 101 102 101 100 100 100 100 101 101 99 99 101 103 103 102 100 97 92 86 80 73 66 56 46 38 31 27 24 21 17 14 11 9 8 8 8 9 13 17 20 20 26 47 76 97 103 103 102 101 100 100 101 101 100 100 100 100 99 99 101 100 100 102 98 84 67 53 43 37 36
63 63 87 103 100 98 101 102 99 100 101 100 100 102 102 101 101 99 99 100 101 100 100 100 100 101 103 102 101 101 98 94 90 84 77 69 59 49 41 35 30 27 24 20 17 14 11 8 8 9 9 11 16 21 22 22 28 50 79 96 101 103 103 101 100 101 100 100 101 100 100 100 100 100 100 100 100 102 99 87 70 54 41 35 34
77 85 97 102 100 99 101 100 99 100 101 100 100 102 101 100 100 100 100 100 100 100 100 101 101 102 102 102 101 99 96 93 88 81 71 61 52 44 38 34 30 27 24 20 16 14 11 9 10 10 10 13 20 26 28 26 31 53 80 95 99 101 103 101 100 101 100 100 101 100 100 100 100 100 100 100 100 101 99 89 74 58 43 34 32
93 103 99 97 100 100 98 100 101 100 99 100 101 101 100 100 100 100 100 100 100 100 101 101 101 102 103 102 100 99 96 90 84 75 64 55 48 42 38 34 29 26 22 19 16 13 10 10 11 11 11 16 24 31 33 30 34 54 80 94 96 97 101 101 100 100 100 100 100 100 100 101 100 99 100 100 99 100 101 94 78 60 47 38 33
94 103 99 98 102 101 99 101 101 99 100 102 101 100 100 100 100 100 100 101 101 100 101 102 102 102 102 101 100 98 93 86 77 68 59 51 46 41 37 32 28 24 21 17 15 13 11 11 12 12 12 18 27 33 34 32 36 54 80 96 98 97 100 101 100 100 101 100 100 100 101 100 100 99 100 100 99 100 101 97 81 61 49 43 37
91 97 99 101 102 99 100 101 100 99 101 101 99 100 101 100 100 100 101 100 100 101 103 104 103 100 100 100 99 95 89 80 72 63 56 50 46 40 35 31 26 23 20 17 14 13 12 13 14 14 14 19 29 35 35 34 38 54 78 97 102 99 100 101 100 100 101 100 100 101 101 100 100 100 99 100 100 99 100 100 89 68 53 46 41
95 95 96 99 100 101 101 100 99 100 101 100 99 101 101 99 100 101 100 99 102 104 104 102 99 99 100 100 97 91 84 75 67 60 55 50 44 38 33 29 25 21 19 16 14 13 13 15 16 17 17 21 30 36 36 35 39 52 75 95 102 100 100 101 100 100 101 100 100 101 100 100 100 100 99 99 101 100 99 101 98 82 63 49 42
101 99 98 98 99 100 100 100 100 100 100 99 100 101 100 100 101 100 99 102 105 104 101 98 98 100 102 99 93 87 79 70 64 59 54 48 42 36 32 28 24 20 18 16 14 14 15 17 19 20 20 23 31 37 37 35 38 49 68 88 100 101 100 100 101 100 100 101 100 100 100 100 100 100 100 99 100 100 100 100 100 95 81 59 41
100 100 100 100 100 101 100 100 100 99 99 100 101 100 100 100 101 101 103 105 104 100 98 99 101 103 102 96 89 82 74 68 63 58 51 45 39 35 31 27 23 20 18 16 15 15 17 19 21 23 23 25 32 38 38 36 37 45 59 78 95 101 100 100 101 100 100 100 100 100 100 100 100 100 100 100 99 100 101 99 98 101 96 73 46
101 100 100 100 100 100 100 99 100 100 100 100 100 100 100 101 102 102 103 103 100 98 99 103 104 103 98 90 84 78 72 67 62 56 48 43 39 35 31 27 23 20 18 16 15 17 19 21 24 26 27 27 32 39 41 38 37 41 51 68 87 99 101 100 100 101 100 100 101 100 100 100 100 100 100 101 99 99 101 101 98 100 102 87 59
Wind_Speed
57 56 54 53 53 53 53 52 52 52 53 55 56 57 58 60 62 64 65 66 66 67 67 67 68 69 70 71 71 70 70 69 69 69 71 72 73 74 74 75 75 75 75 77 79 80 81 81 83 84 85 85 85 83 81 81 83 85 88 91 94 99 104 107 109 108 102 92 87 84 82 82 83 87 92 94 95 98 103 105 108 109 108 105 101
60 60 60 58 57 57 56 55 55 55 55 56 56 57 59 61 63 65 66 67 68 68 68 68 69 70 71 72 72 71 71 70 71 72 73 74 74 74 75 75 75 76 77 79 80 81 81 82 83 85 86 85 83 81 81 82 85 87 90 94 97 101 104 105 107 107 102 94 89 85 82 83 86 89 95 100 102 105 107 106 103 98 92 86 82
59 59 59 58 57 56 56 55 55 55 55 56 56 57 59 61 62 64 66 68 68 69 69 69 69 70 71 72 72 72 71 71 72 73 74 74 75 75 76 76 77 78 79 80 81 81 82 82 84 85 86 84 83 82 82 84 87 90 93 95 99 101 102 103 104 104 101 97 92 88 86 89 93 95 99 103 105 104 100 93 85 77 72 70 69
56 56 55 55 55 55 55 55 55 55 56 57 58 59 61 61 62 64 66 68 69 69 69 68 68 69 70 71 72 71 72 72 73 74 75 75 76 76 77 78 78 79 79 80 81 81 82 82 84 85 85 84 83 83 84 87 89 92 94 96 100 100 100 101 101 101 100 97 94 94 94 97 100 101 102 100 95 89 82 73 66 63 62 64 66
56 56 55 55 55 56 57 58 58 59 59 60 61 63 64 65 65 66 67 68 69 69 69 68 69 70 71 71 71 71 71 72 73 74 75 76 76 77 78 78 78 78 79 80 81 81 82 82 83 84 83 82 83 84 86 88 90 92 95 98 100 100 99 99 99 98 97 97 97 99 101 103 105 102 94 83 75 68 64 60 58 58 60 62 65
56 56 56 57 58 59 60 61 61 62 62 63 65 67 68 68 68 68 69 69 70 70 69 69 69 70 71 71 71 71 72 73 74 75 76 76 76 76 76 76 76 77 79 80 80 81 81 81 82 82 81 81 82 85 86 89 91 93 96 99 100 100 100 100 98 96 95 96 99 103 105 105 102 91 74 63 59 56 54 54 55 56 58 60 61
57 57 58 59 60 60 61 62 63 64 65 66 68 69 70 70 70 69 69 69 69 69 69 69 69 70 70 70 71 71 72 73 74 75 75 74 73 72 73 74 75 77 78 78 79 79 80 80 81 80 80 81 83 85 87 90 92 94 97 100 100 100 101 100 97 94 95 97 101 105 107 101 89 74 58 52 53 51 51 52 51 52 55 57 57
58 58 59 59 60 60 61 62 64 65 67 68 70 71 71 71 70 69 68 68 67 67 67 68 68 69 70 70 70 71 73 74 75 74 71 69 68 69 71 72 73 74 75 76 77 78 78 79 79 79 80 82 83 85 88 91 94 96 99 102 102 102 103 102 97 94 95 99 102 105 102 89 72 60 51 48 49 49 50 52 48 48 52 55 55
57 58 59 60 60 61 62 63 65 67 69 70 71 71 70 69 68 67 66 66 65 65 65 66 66 67 68 69 71 72 74 75 74 71 67 67 68 69 69 70 71 73 74 75 75 75 76 77 77 78 80 83 85 88 91 94 97 99 101 102 103 103 104 103 97 94 96 100 103 102 91 73 59 53 48 47 48 48 50 51 48 47 51 52 51
58 59 60 61 61 62 64 65 66 67 68 68 68 67 65 64 63 62 63 62 62 63 63 64 64 65 67 70 72 73 74 74 72 69 68 68 68 68 68 69 72 73 74 74 74 74 76 76 77 79 82 86 89 91 94 96 98 100 100 100 101 103 103 101 96 95 97 100 101 94 76 59 52 51 49 47 49 50 50 51 49 48 49 49 46
58 60 62 63 63 64 64 65 65 65 64 64 62 60 59 58 58 59 59 60 60 60 61 61 63 65 68 71 72 73 73 73 72 70 69 69 68 67 69 71 72 73 73 73 74 75 76 77 79 82 85 88 90 92 94 96 97 98 98 99 99 100 100 99 97 97 99 99 96 83 62 50 49 51 50 49 51 53 51 50 49 47 47 47 43
60 62 63 63 63 63 62 62 61 61 60 60 59 59 59 59 60 61 61 61 62 62 61 62 64 67 70 72 74 74 74 72 71 70 70 70 69 69 70 70 71 72 72 74 75 76 77 78 81 84 86 88 90 92 94 95 96 96 96 96 96 95 95 96 99 100 99 96 89 71 53 47 47 49 52 53 54 54 52 51 50 47 45 45 40
62 62 63 62 62 61 60 59 59 59 60 60 60 61 63 64 64 64 63 63 63 63 63 64 66 70 73 75 76 77 75 72 70 70 70 70 70 69 68 69 70 71 73 75 76 77 78 80 82 85 86 88 91 93 94 94 94 94 94 93 92 91 91 94 98 100 97 90 78 62 50 48 47 49 53 55 56 56 54 52 51 48 45 42 39
63 63 63 63 62 61 61 61 62 62 63 64 64 66 66 66 65 64 63 63 63 64 65 67 70 73 75 77 78 77 75 71 69 69 69 68 67 67 67 69 70 72 74 75 76 77 79 81 83 84 86 88 90 91 91 92 93 93 92 92 91 90 89 91 95 96 92 83 69 57 52 51 49 50 54 56 57 57 56 54 52 49 46 42 39
64 65 66 67 67 66 66 66 67 67 68 67 66 65 64 63 62 61 61 62 63 64 66 67 68 69 70 73 76 76 72 69 67 67 66 66 65 66 68 69 71 73 74 74 75 76 78 81 82 84 85 87 87 88 89 91 93 93 92 91 91 90 89 90 93 92 84 74 63 56 55 55 54 54 56 58 59 59 58 56 53 50 48 45 40
66 69 71 72 73 72 71 70 69 67 65 64 62 59 58 58 58 58 59 61 63 65 66 67 66 65 67 71 74 74 70 67 66 66 66 66 66 67 69 70 71 72 72 72 73 75 77 79 81 82 83 84 85 86 88 90 92 93 93 91 89 89 90 92 93 88 75 66 60 57 57 57 59 60 61 63 63 61 60 58 53 51 50 47 43
70 71 72 73 73 71 69 67 64 62 59 58 57 55 54 55 56 57 59 62 65 68 70 69 66 65 67 70 72 71 69 67 66 66 66 67 67 68 69 70 70 70 70 70 71 73 75 77 79 80 81 81 83 84 86 89 91 92 93 90 87 88 90 92 92 81 67 61 60 59 59 61 63 64 63 63 64 64 64 60 54 53 52 49 45
69 69 69 69 68 65 63 61 59 57 56 55 54 54 55 56 58 59 60 63 65 67 69 68 65 63 64 67 69 70 70 69 68 68 68 68 69 69 69 68 68 68 68 68 70 71 73 74 76 77 78 80 81 82 84 87 90 92 93 91 87 87 89 92 87 72 60 59 60 60 62 64 63 61 58 58 59 61 64 60 56 55 52 49 48
66 66 66 66 64 61 59 57 55 54 53 55 56 57 59 60 60 61 62 63 65 67 68 67 66 64 63 64 65 67 69 70 70 70 70 70 70 69 68 67 67 67 67 67 68 69 70 71 73 75 77 78 80 81 83 86 89 92 93 92 89 88 90 91 81 63 55 56 57 59 61 60 58 56 54 53 53 55 58 57 56 55 50 47 49
63 64 65 64 61 59 56 53 53 54 57 60 61 61 61 61 62 64 66 67 69 69 67 65 64 65 65 65 64 64 67 70 72 72 72 71 70 67 66 67 67 66 66 66 66 67 68 69 71 74 75 77 78 80 82 84 87 91 92 92 91 90 92 89 74 58 53 54 55 57 56 53 52 52 52 51 49 49 51 52 54 54 49 46 49
61 64 65 64 60 57 54 53 54 57 60 62 62 62 64 65 67 69 71 71 71 70 67 65 65 65 66 67 66 65 66 68 70 71 71 70 67 65 65 66 66 65 65 65 65 66 67 68 70 73 75 76 78 80 82 83 87 90 91 92 92 91 93 86 68 54 52 53 53 54 51 48 49 50 49 48 46 44 44 46 49 51 48 46 47
62 64 64 63 60 58 57 57 58 59 62 64 64 66 68 70 73 74 74 74 73 70 67 66 66 67 66 67 67 66 67 67 69 70 69 66 64 63 64 65 65 65 64 63 63 65 66 68 69 71 74 76 78 79 81 83 86 88 90 92 92 92 91 81 65 54 53 53 53 51 47 46 48 48 47 45 42 40 40 41 44 46 45 45 46
61 60 60 60 60 62 63 63 62 63 66 67 68 70 72 75 77 76 74 74 72 70 68 68 69 68 66 66 67 68 68 68 68 68 65 63 62 63 63 64 64 63 63 63 63 64 65 67 69 71 73 75 76 78 81 84 86 87 89 92 92 91 87 75 62 56 54 53 52 48 44 45 46 45 43 42 40 38 37 37 39 42 43 45 45
54 54 55 58 61 65 66 66 66 67 70 71 71 73 75 78 78 74 70 70 69 68 68 69 68 66 64 65 67 69 70 70 68 66 62 61 61 62 62 62 62 63 63 63 63 64 65 67 69 71 72 74 76 78 81 84 85 86 89 91 91 88 81 69 59 55 53 52 51 46 42 43 44 42 41 40 38 37 35 34 35 37 41 44 45
56 57 58 60 64 66 67 69 70 71 72 73 74 76 77 77 75 71 68 66 66 66 66 66 64 62 63 65 68 70 70 70 67 63 60 59 60 60 60 60 61 62 62 62 62 63 65 67 69 70 73 74 76 78 82 83 83 85 88 90 88 84 76 64 57 53 50 49 48 43 40 41 41 39 39 39 37 36 35 33 33 34 39 43 44
64 65 65 66 66 67 70 72 74 74 73 74 76 77 79 77 74 71 69 67 66 65 64 62 60 61 64 67 68 69 70 68 64 60 58 58 58 58 58 58 60 62 62 61 62 63 65 67 69 70 72 74 77 80 82 82 82 84 87 87 83 76 68 60 55 51 47 46 45 41 38 39 38 38 39 39 37 36 34 34 33 33 37 42 43
69 69 69 70 70 71 72 74 75 75 75 77 78 78 79 78 75 72 70 69 67 65 63 60 59 61 64 67 67 68 68 65 61 58 57 57 57 56 56 57 59 61 61 61 62 64 65 67 69 71 73 75 77 80 81 81 82 84 85 83 76 67 60 56 53 48 45 44 42 38 37 37 36 37 39 39 38 36 34 34 33 33 35 40 43
73 73 73 73 74 75 76 77 79 80 81 82 82 81 81 81 79 75 72 71 69 65 62 62 61 61 65 67 67 67 65 62 58 57 56 56 55 55 55 56 58 60 61 61 62 64 66 68 70 72 73 75 77 78 78 80 82 83 83 77 68 59 54 53 51 47 44 43 40 37 36 35 35 37 38 39 38 36 35 34 33 33 35 39 43
78 78 78 78 80 82 83 85 87 88 89 89 88 86 84 83 81 76 73 72 70 65 63 64 64 64 66 67 66 65 62 59 57 56 55 54 53 53 54 56 58 60 61 62 63 65 67 69 71 72 73 74 75 76 77 80 81 82 79 70 60 54 52 50 48 45 44 42 38 35 34 34 35 36 37 37 37 36 36 35 32 32 34 38 43
81 81 82 83 86 89 91 94 96 96 96 95 93 91 87 84 81 76 71 71 69 65 62 64 66 67 67 67 65 63 60 58 56 55 53 52 51 52 54 56 58 60 61 63 64 66 68 70 71 73 74 74 75 76 78 80 80 79 74 63 53 51 51 49 45 43 44 42 38 34 33 33 34 36 36 36 35 35 36 34 31 32 34 38 43
82 83 84 87 90 93 98 102 103 102 101 98 95 92 88 83 79 74 69 69 68 64 62 64 67 68 68 65 63 61 59 56 55 52 50 50 50 51 53 55 58 59 61 63 65 67 69 70 72 73 74 75 76 77 79 80 79 77 69 56 49 49 50 47 44 42 42 42 40 37 35 34 34 35 35 36 34 33 34 33 30 31 35 39 43
83 84 87 90 94 99 104 107 107 105 102 98 95 91 85 81 77 72 69 69 68 65 65 67 68 68 66 64 62 60 57 55 53 50 48 48 49 50 53 55 57 59 61 63 65 67 70 71 72 73 74 75 76 77 79 79 76 72 64 52 46 47 48 45 42 41 40 40 39 39 38 37 36 35 35 35 34 31 31 30 29 31 36 40 43
87 88 90 93 98 106 110 109 107 104 100 96 92 86 82 79 76 71 69 69 68 67 68 67 66 66 65 63 60 58 56 53 50 47 46 46 48 50 53 55 57 59 61 64 66 68 70 72 72 73 74 76 77 77 78 76 71 65 58 50 45 45 45 43 41 39 39 39 39 39 39 39 38 36 35 34 33 30 28 28 28 32 37 41 44
93 93 94 99 107 112 111 107 104 100 96 92 87 81 79 78 74 70 69 69 68 68 67 65 65 65 64 60 57 56 54 51 47 44 43 45 47 50 53 55 57 59 62 64 66 68 70 71 72 73 75 76 77 76 74 70 63 57 52 49 46 45 43 41 39 37 37 38 39 39 40 40 39 37 35 34 32 28 26 25 27 32 38 42 47
98 101 106 111 113 112 107 103 99 95 90 86 81 77 76 74 71 68 69 69 68 68 67 66 65 64 60 57 55 54 52 49 45 42 42 44 47 50 52 54 57 60 62 65 67 68 70 71 72 74 75 76 76 73 69 63 56 50 48 47 46 44 41 38 37 35 35 37 38 39 40 40 39 37 34 31 30 27 24 24 26 32 39 44 48
110 114 115 113 110 106 102 99 95 90 85 81 77 74 73 71 68 67 69 70 70 70 68 65 63 61 57 54 52 52 50 46 42 40 42 44 47 49 51 53 56 59 62 64 66 68 70 72 74 75 76 75 73 68 63 57 50 46 46 47 47 44 40 37 35 34 33 35 36 38 39 39 38 36 32 29 27 26 24 23 26 32 40 45 48
119 116 111 106 102 99 96 94 90 85 81 77 74 71 70 69 68 68 69 69 69 68 65 62 60 56 53 51 50 49 46 43 40 40 42 44 46 48 50 53 56 59 61 64 66 69 71 73 75 75 75 73 69 63 57 52 46 44 45 47 47 45 41 36 34 33 33 33 34 35 37 37 36 34 30 27 26 25 23 23 25 32 39 45 48
111 106 100 96 92 89 86 85 82 79 76 73 70 67 67 66 65 65 65 65 65 64 62 59 54 51 49 48 47 45 42 40 39 40 41 42 44 47 50 53 56 59 61 64 67 69 71 73 75 75 73 70 65 58 51 46 44 43 44 45 46 46 42 36 33 33 33 33 33 34 34 34 33 31 28 25 24 24 23 22 24 31 38 44 47
91 87 84 80 76 74 74 74 72 71 70 68 65 64 63 63 63 63 64 66 66 64 59 53 49 47 46 44 43 41 40 38 38 38 40 42 45 47 50 53 56 59 62 65 67 70 72 73 74 74 71 66 59 52 46 42 42 42 43 43 44 44 41 37 33 31 31 32 32 33 33 32 30 29 27 24 23 22 21 21 24 30 37 43 46
71 69 67 65 63 63 63 63 62 62 63 62 61 60 61 62 64 65 66 65 62 57 51 48 46 44 42 40 39 39 37 37 37 38 40 43 45 47 50 53 56 58 62 65 68 70 72 73 73 71 67 61 55 48 42 40 40 41 42 42 42 42 40 37 33 30 29 29 30 30 31 30 28 26 26 24 21 20 20 20 23 29 35 41 44
60 58 55 53 52 52 53 54 55 56 57 58 59 61 63 65 65 63 60 56 52 49 47 45 42 39 37 37 37 36 35 35 37 38 40 43 45 47 50 53 56 59 61 65 68 71 72 73 71 68 63 57 51 44 39 38 39 40 41 41 40 38 38 37 34 30 27 27 28 28 28 27 25 24 24 23 20 19 19 19 23 28 34 40 43
55 53 49 45 44 45 47 50 53 56 58 61 63 65 65 62 57 53 50 49 47 45 43 40 37 35 35 35 34 34 34 35 36 38 40 42 44 47 50 53 56 59 61 64 67 70 72 72 69 65 59 52 46 42 38 37 38 38 38 38 37 35 33 33 33 30 26 25 26 26 24 23 23 22 22 20 18 18 18 18 22 27 32 38 42
47 45 43 42 43 46 50 55 58 60 61 61 61 60 56 51 48 46 46 45 43 41 38 36 34 33 33 33 32 33 33 35 36 38 40 42 44 47 50 53 56 59 62 65 67 69 71 70 66 61 55 48 43 39 37 36 36 37 36 35 34 32 30 30 30 28 24 23 23 23 21 20 20 20 18 15 13 13 15 16 20 26 31 35 40
37 37 40 43 46 50 56 59 57 55 53 52 50 49 47 45 44 43 42 40 39 37 34 33 32 32 32 31 31 32 33 35 36 38 40 42 45 47 50 53 56 59 62 65 67 69 69 66 62 57 52 45 40 38 37 37 38 37 35 34 32 30 28 27 27 25 23 21 20 20 19 19 18 16 14 12 9 10 13 16 19 24 29 33 38
34 35 39 45 48 51 54 53 48 44 42 42 42 43 42 41 39 38 38 36 35 33 32 31 31 31 30 30 31 32 34 35 37 39 41 43 45 48 51 53 56 59 62 65 66 67 66 62 57 53 48 41 37 36 37 38 38 37 35 33 32 29 26 25 23 22 21 20 18 16 17 18 17 15 14 13 13 14 17 18 20 24 28 32 35
35 34 36 41 44 44 43 40 37 36 36 38 38 38 37 35 35 35 34 33 32 30 30 30 29 29 29 30 31 33 34 36 37 39 41 44 46 49 51 53 56 58 61 64 65 65 63 58 53 49 44 38 35 34 36 37 37 35 34 32 31 29 26 23 21 20 19 18 16 15 16 18 18 17 17 17 17 18 20 21 20 23 27 30 33
34 34 34 35 34 33 32 31 32 34 35 35 34 33 32 32 32 32 31 30 30 29 29 29 29 29 30 31 32 34 35 36 38 40 42 44 47 49 51 54 56 58 61 63 64 62 59 53 49 46 42 37 33 33 35 36 35 34 32 30 29 28 26 22 20 19 18 17 16 14 15 19 21 20 20 19 18 17 20 21 21 22 26 29 31
32 33 33 33 30 28 28 29 31 32 32 31 30 30 30 30 30 30 29 29 29 29 29 30 30 30 31 32 33 34 36 37 39 40 42 44 47 49 51 53 56 58 60 62 62 59 54 49 46 43 40 35 32 32 33 34 34 32 30 27 27 27 25 22 20 18 17 16 16 14 13 17 22 23 21 19 16 15 18 22 22 22 25 28 31
33 33 33 34 32 30 29 30 30 29 29 28 29 29 29 29 29 28 28 28 29 29 30 30 30 31 32 33 34 35 37 38 39 41 43 45 47 49 51 53 55 58 60 61 59 55 50 46 43 41 38 34 32 31 32 32 32 30 28 26 25 25 24 23 20 18 16 15 15 14 13 16 21 22 21 19 16 12 16 22 25 23 24 28 31
33 31 29 28 28 27 27 27 26 27 28 28 28 28 28 28 28 28 28 28 29 30 30 30 30 31 32 33 35 36 37 38 39 41 43 45 47 49 51 53 55 57 59 59 57 51 46 42 40 38 36 34 32 30 31 31 31 29 28 25 23 23 22 21 20 18 16 15 15 14 13 15 19 21 21 20 16 12 14 23 28 27 26 27 31
30 27 24 23 23 24 24 24 25 27 27 27 27 27 27 27 27 27 28 28 29 29 29 30 30 32 33 35 36 37 37 38 40 41 43 45 48 49 51 53 56 57 58 57 53 47 43 40 38 36 35 33 31 30 30 30 30 29 28 25 23 22 22 21 19 18 17 16 15 14 13 14 18 20 20 20 16 11 13 23 30 31 28 27 30
Wind_Direction
287 287 286 285 285 284 283 282 283 285 286 285 285 285 285 285 286 286 286 287 287 288 289 290 290 290 290 291 291 292 292 292 291 291 291 290 288 287 286 286 286 287 289 290 291 291 291 291 292 294 296 296 296 295 294 294 296 299 302 305 307 308 309 309 310 312 312 309 306 303 300 296 293 290 289 287 286 285 285 284 282 280 277 274 270
288 288 288 288 288 287 286 285 286 287 287 286 285 285 285 286 287 287 287 287 287 288 288 289 289 289 290 290 291 292 292 291 291 291 291 290 288 287 286 286 287 289 290 291 290 290 291 292 295 296 296 296 296 296 295 295 297 301 304 307 309 310 310 310 311 311 310 308 306 304 302 298 295 293 292 291 290 289 288 285 282 279 274 270 266
289 289 290 290 290 290 290 289 289 289 288 287 287 286 286 287 287 287 287 287 286 286 286 287 287 288 289 289 290 290 290 290 290 290 290 289 288 287 287 287 289 290 291 290 290 291 293 295 296 297 297 297 297 297 296 297 300 303 306 309 310 311 311 311 310 309 308 308 307 306 304 301 298 297 295 294 293 290 287 283 278 272 267 264 263
289 289 290 291 292 292 293 292 292 291 290 289 288 287 287 287 286 286 285 285 285 285 285 285 286 287 287 287 288 288 289 289 289 290 290 289 287 287 287 289 291 291 290 291 292 293 294 296 297 297 297 298 298 297 298 299 302 305 308 310 311 312 312 311 309 308 307 308 308 307 305 303 301 300 298 295 292 287 282 277 271 266 263 263 265
289 290 291 292 292 293 292 291 291 290 290 289 288 287 287 286 285 284 284 284 283 283 284 284 285 285 286 286 286 287 287 288 289 290 289 288 287 288 289 290 290 290 291 293 293 294 295 296 297 297 298 298 298 298 299 301 303 306 309 311 312 312 313 311 309 308 308 308 308 307 306 305 304 301 298 293 286 280 276 273 269 266 265 267 271
290 291 291 291 291 291 290 289 288 288 289 288 288 287 287 286 285 284 283 282 282 283 283 283 284 284 284 285 285 285 286 287 288 289 288 288 289 290 290 291 291 292 293 293 294 294 295 295 296 297 298 299 298 298 299 301 304 307 310 311 312 313 313 312 310 308 308 308 308 307 307 306 304 300 295 287 280 276 274 272 271 271 271 273 276
292 291 291 290 290 289 288 287 287 288 288 288 288 288 287 286 285 284 282 282 282 282 282 283 283 283 283 284 284 285 286 287 288 288 288 289 290 291 291 291 292 293 294 294 294 294 295 295 296 298 298 298 298 298 300 302 305 308 310 311 312 313 313 312 310 309 308 308 308 308 308 307 303 297 289 281 278 278 275 271 271 275 278 279 281
291 291 290 290 289 288 288 287 287 288 288 288 288 287 287 286 284 283 282 282 281 282 282 283 283 283 283 283 284 286 287 288 288 288 288 289 290 291 292 292 293 294 294 295 295 295 295 296 297 298 298 298 298 299 300 303 305 307 309 311 312 313 313 312 311 310 309 310 310 310 309 306 300 292 285 279 278 278 277 274 274 276 280 282 284
291 291 290 289 289 288 288 287 286 286 286 286 286 286 286 286 285 284 284 283 283 283 283 283 284 284 285 285 287 287 287 287 287 287 287 289 291 292 292 293 294 294 294 294 295 295 296 297 297 297 297 297 298 299 301 303 305 308 310 312 313 314 314 313 311 310 311 311 312 310 308 303 296 288 282 278 277 277 278 278 279 279 281 283 284
290 289 288 288 287 287 286 285 284 284 284 285 285 285 286 286 286 287 287 286 286 285 285 285 286 286 287 287 287 286 286 287 286 285 287 290 292 292 292 293 294 294 294 295 295 296 296 297 297 297 297 297 299 300 303 306 308 311 312 314 314 315 314 313 312 311 312 313 312 310 305 299 293 287 281 275 275 276 277 279 281 282 283 286 285
288 287 286 286 285 284 283 283 283 283 282 283 284 285 286 287 289 290 290 290 290 289 288 288 288 288 287 287 286 286 286 286 285 285 289 291 291 291 292 293 294 295 295 296 296 296 296 297 297 297 298 299 301 303 306 309 311 313 314 315 316 315 314 314 314 314 314 314 312 308 301 294 290 287 281 275 273 275 277 279 281 282 283 287 286
285 284 284 283 282 282 281 281 281 281 281 282 283 284 286 287 289 291 292 292 291 290 288 288 288 287 287 287 287 288 287 286 286 288 290 291 291 292 293 294 295 296 296 296 296 296 296 297 297 298 299 301 304 306 309 311 313 314 316 317 316 315 314 315 315 315 315 314 309 304 297 291 288 285 282 277 274 274 276 278 280 280 281 285 285
284 282 281 281 280 280 279 280 280 280 282 282 283 285 286 288 290 292 292 291 290 289 289 288 288 288 289 290 291 290 288 286 287 288 289 290 291 294 295 296 296 296 296 297 296 296 297 297 298 300 302 305 307 309 311 312 314 316 317 317 315 314 314 315 315 315 314 311 305 299 295 290 287 284 281 278 275 274 274 275 277 278 278 281 281
283 282 281 280 280 279 279 280 281 282 284 285 286 287 289 290 291 292 291 290 290 290 290 290 291 291 292 293 293 293 290 287 286 287 288 290 292 295 296 296 296 296 296 296 296 297 297 298 300 302 305 308 310 311 313 314 316 317 318 317 315 314 315 315 315 314 312 306 299 296 293 290 287 284 281 279 276 272 271 270 272 274 275 276 276
283 283 283 283 282 281 281 282 284 286 287 288 289 289 290 291 291 291 290 289 289 290 291 293 294 295 296 296 295 293 290 287 285 286 287 290 293 295 296 296 295 295 296 296 297 298 299 300 303 305 308 310 312 314 315 317 318 319 318 318 316 315 316 316 315 314 309 300 296 295 293 290 288 285 282 279 276 273 269 266 266 269 270 270 271
284 285 286 286 285 285 285 286 287 288 289 290 290 290 290 290 290 290 289 289 290 291 293 295 297 298 299 298 295 292 289 286 285 286 288 290 293 294 294 294 294 295 295 296 298 300 302 304 306 308 310 313 314 316 317 318 319 319 318 318 317 317 317 317 316 314 307 296 294 295 292 290 289 286 283 280 276 273 269 264 262 263 265 265 266
285 286 287 287 286 287 287 287 287 289 290 289 287 287 288 291 291 290 289 288 289 291 293 295 299 300 299 297 295 292 289 286 285 286 288 289 291 292 292 293 293 294 295 298 300 303 305 307 309 311 313 315 317 318 319 319 319 319 318 317 318 318 318 318 317 313 304 297 296 295 293 292 291 289 286 282 277 272 268 263 259 259 260 261 261
285 286 286 286 286 286 286 286 288 290 289 286 284 285 289 292 291 290 289 289 290 292 293 296 298 300 299 299 297 294 291 288 287 287 288 289 290 291 291 292 293 294 296 299 303 306 308 310 312 314 316 317 318 319 318 318 318 318 317 317 318 319 319 318 316 310 301 298 299 297 296 297 296 294 291 287 281 274 268 263 257 254 255 255 256
284 285 285 284 284 284 285 287 290 290 288 287 288 291 293 293 291 290 291 292 293 295 296 297 298 299 300 300 299 297 294 291 289 288 289 289 290 290 291 291 293 295 297 301 304 307 310 312 314 315 317 318 319 319 318 317 318 318 317 317 319 320 320 318 315 307 298 298 298 298 299 299 298 297 296 292 286 278 271 264 257 252 250 248 250
283 283 281 280 281 283 285 287 289 288 289 291 294 295 296 294 293 292 293 294 296 296 296 297 298 299 299 299 299 298 296 293 290 289 289 289 289 289 290 291 293 296 298 302 305 308 311 313 315 316 318 319 319 318 317 317 317 317 317 319 321 321 320 318 314 304 297 297 298 299 300 298 297 298 296 295 292 283 274 266 258 252 246 242 245
282 281 279 278 280 282 284 286 287 289 292 293 293 294 296 295 294 294 294 294 296 296 295 296 298 298 297 297 298 299 297 293 290 289 288 288 288 289 290 292 294 296 299 303 306 309 312 314 316 317 318 319 318 317 317 316 317 318 319 320 321 321 319 317 313 304 299 299 300 300 299 296 295 296 296 295 294 287 278 268 258 251 243 237 239
280 279 278 278 279 281 283 284 285 289 292 291 291 293 296 297 297 295 292 293 294 294 295 296 298 297 296 296 296 297 296 293 290 288 287 287 288 289 290 292 295 297 301 304 308 310 313 315 316 318 318 318 317 317 316 317 318 319 319 320 320 320 318 316 311 306 303 302 302 300 297 294 295 296 295 295 292 287 281 271 260 251 241 233 234
278 278 277 278 279 280 281 281 282 288 292 292 291 292 294 297 299 296 291 291 292 292 294 296 297 296 295 295 296 297 297 294 290 288 287 287 288 289 291 294 297 299 302 305 308 311 314 316 317 318 317 316 316 316 317 319 320 320 320 320 320 319 317 314 310 307 305 304 303 300 296 295 297 297 295 293 290 287 283 275 264 252 239 231 231
279 281 281 279 280 280 281 282 283 289 294 294 293 292 293 297 300 297 292 291 291 291 294 297 297 295 295 296 298 298 297 294 291 288 287 286 288 290 292 295 298 301 304 307 309 312 314 316 317 317 316 316 316 317 319 321 321 320 320 319 318 317 315 311 307 305 303 302 302 299 296 297 298 297 296 294 292 289 285 278 267 252 238 230 228
282 286 285 282 282 282 283 284 285 288 293 295 295 293 294 298 301 299 294 292 291 292 294 297 297 296 296 298 300 298 296 293 290 287 286 287 289 291 294 297 300 302 305 308 310 312 314 316 316 316 315 315 316 319 321 321 320 320 320 319 317 315 313 309 305 303 301 301 300 298 296 296 296 295 295 295 294 291 286 279 268 252 237 228 226
284 285 285 284 284 283 284 285 285 286 290 294 296 295 294 297 301 300 294 291 291 292 293 296 298 298 298 299 299 297 294 291 288 286 285 288 290 293 296 299 301 303 305 308 309 311 313 315 314 314 315 316 318 321 321 320 320 321 320 318 315 312 309 307 303 301 300 300 299 296 295 295 294 293 294 294 295 294 287 278 268 254 239 228 224
285 285 285 286 286 286 287 288 288 287 289 293 296 296 294 294 298 299 295 290 290 290 292 296 299 299 298 298 297 295 292 289 286 284 286 289 292 295 298 300 302 303 305 307 309 311 313 313 313 315 317 319 320 321 320 320 321 321 320 318 313 308 305 304 300 299 300 299 298 296 295 294 292 292 293 294 295 296 290 279 267 255 243 230 223
284 285 286 287 288 288 289 290 290 290 291 293 295 296 294 293 295 296 294 290 287 289 292 296 298 299 298 297 295 293 290 287 284 283 286 290 293 296 299 300 301 302 304 307 310 312 312 313 314 317 319 320 320 320 320 321 322 321 320 317 310 305 303 301 299 299 300 299 297 296 295 294 292 291 292 292 292 292 289 280 266 254 245 232 222
282 284 286 287 289 290 291 292 292 292 292 293 294 295 294 293 292 294 292 289 286 287 290 292 294 296 296 294 292 290 288 284 282 283 287 291 295 297 299 300 301 303 305 308 311 311 312 314 316 318 319 319 320 320 321 322 322 321 319 315 307 303 303 300 298 300 301 300 297 295 294 294 294 293 292 291 288 285 284 278 264 252 243 230 221
279 282 284 287 289 290 291 292 292 292 292 293 293 293 293 292 291 291 290 287 285 286 287 289 290 292 292 291 289 288 285 281 279 283 288 293 295 297 298 300 302 304 306 308 310 311 313 315 316 318 319 320 321 321 322 322 322 321 319 313 305 303 303 300 298 300 301 300 299 297 295 294 293 293 292 292 288 283 280 275 261 247 238 228 221
275 278 281 284 286 288 290 291 291 290 290 291 291 291 291 290 289 289 288 285 284 286 287 287 288 288 288 288 287 285 281 278 279 284 290 293 295 297 299 301 302 304 306 308 310 312 313 315 317 318 320 321 322 323 323 322 321 320 318 311 304 303 303 300 299 300 300 300 299 298 297 295 294 293 292 292 290 284 278 272 258 242 233 226 220
273 276 279 281 284 286 288 288 288 287 287 288 289 288 288 287 287 286 285 283 282 284 287 287 286 286 286 286 285 282 278 276 279 285 290 292 295 297 299 300 302 304 306 308 310 312 314 316 318 320 321 322 323 324 323 322 320 319 317 310 305 305 303 299 298 299 299 298 297 296 296 296 295 295 293 291 290 285 277 268 253 237 229 223 217
271 274 276 278 282 285 286 286 285 285 285 286 286 285 285 285 284 284 283 281 280 281 285 286 285 284 283 282 281 279 275 275 279 285 289 292 295 297 298 300 302 304 306 309 311 313 315 317 320 321 322 323 324 324 323 321 318 317 314 309 306 306 303 299 298 299 299 298 296 295 296 297 297 297 296 292 289 284 275 264 247 232 226 220 214
272 273 275 278 281 283 283 283 283 283 283 283 283 281 281 282 283 282 281 280 278 279 282 284 283 281 280 279 278 276 273 274 279 285 289 292 294 296 298 300 303 305 307 310 312 314 317 319 321 323 324 325 325 324 322 319 316 314 310 307 307 307 303 298 297 299 298 297 297 296 297 298 298 299 297 292 287 282 273 260 243 229 223 218 212
271 273 276 279 280 281 280 280 280 279 279 279 279 277 278 281 282 280 279 278 278 279 281 281 280 278 277 276 276 273 271 274 280 286 289 291 293 296 299 302 305 307 309 312 314 316 319 321 323 324 325 326 325 324 321 317 313 310 307 305 306 308 303 297 297 298 298 297 297 297 297 298 299 300 298 291 284 279 271 258 240 225 219 216 212
273 275 277 278 278 278 277 277 276 276 275 275 274 273 275 278 278 277 277 277 277 277 277 276 276 275 274 274 273 271 270 274 280 285 288 291 294 298 301 303 305 307 310 313 316 319 321 324 325 326 327 326 325 323 319 314 310 308 306 305 307 308 305 299 297 298 298 297 297 297 297 299 299 300 298 291 282 277 270 258 238 222 217 214 212
275 277 277 277 276 275 274 273 272 271 271 270 270 271 272 273 274 274 274 273 273 273 273 273 272 272 272 271 271 270 271 276 281 285 288 292 295 298 300 302 304 307 311 315 318 321 323 325 326 327 327 326 324 321 316 311 307 306 306 306 307 308 305 300 299 300 298 296 297 296 297 298 298 298 297 291 282 275 268 256 235 220 215 213 211
275 275 275 274 273 271 269 268 267 267 266 266 267 268 269 270 270 272 273 274 274 273 271 269 269 269 269 269 269 270 273 277 282 285 289 291 294 296 299 302 306 310 313 317 320 322 325 327 328 329 328 326 323 319 313 307 305 304 305 306 307 307 305 301 301 302 300 298 298 298 298 298 298 296 296 290 280 272 264 251 232 218 213 211 210
273 273 272 270 267 265 264 263 263 262 262 262 263 264 265 266 268 270 272 272 271 269 267 266 267 267 266 266 267 270 274 277 281 284 287 290 294 297 301 305 309 312 315 318 321 324 327 329 330 329 327 324 321 316 309 304 303 303 304 306 307 306 304 301 302 302 301 299 299 299 298 298 296 294 294 289 277 267 259 244 226 215 211 209 208
269 268 266 263 260 260 260 260 259 259 259 259 260 261 262 263 265 265 265 264 264 263 263 264 264 263 262 263 267 270 273 277 280 284 288 292 296 300 304 307 311 314 317 320 323 326 329 331 331 329 326 323 319 313 306 303 302 303 304 306 307 306 303 301 302 303 301 299 298 297 296 296 293 290 290 286 273 261 253 238 220 212 209 207 207
264 261 258 258 258 258 257 255 255 255 256 256 256 256 256 258 259 260 260 261 260 260 259 259 259 258 259 263 267 270 274 278 282 286 291 295 299 302 305 308 312 315 319 322 325 328 331 332 331 329 325 322 317 311 306 303 303 303 304 305 306 304 301 300 301 303 302 300 297 295 294 293 289 286 285 281 268 256 248 233 216 210 208 206 206
260 254 251 252 253 253 252 250 250 251 252 252 251 251 252 254 256 258 259 257 255 254 254 254 254 256 259 264 268 271 276 280 285 289 294 297 300 303 306 309 313 317 321 324 327 330 332 332 331 328 325 321 315 309 306 304 304 304 304 305 305 302 298 297 299 301 301 300 297 295 292 288 284 280 280 276 263 249 242 229 213 208 208 207 207
258 248 244 243 244 246 247 248 248 249 251 252 251 250 251 253 255 255 253 251 250 251 251 251 253 256 261 265 269 273 277 282 287 291 294 297 301 304 307 311 315 319 323 326 329 331 332 332 330 327 324 319 313 309 307 306 306 305 305 306 307 304 299 297 298 298 299 299 297 293 287 280 275 272 271 267 253 239 235 227 213 208 207 208 208
245 239 239 240 240 241 245 248 249 249 250 249 248 247 248 251 251 249 247 247 248 249 249 250 254 258 262 266 270 275 279 284 288 291 295 298 302 305 309 313 317 321 324 328 330 332 332 331 329 326 323 318 312 309 309 309 309 308 306 307 307 304 299 297 295 294 296 297 295 289 280 271 264 258 254 250 237 231 235 231 217 209 207 208 209
237 243 247 246 245 244 245 246 247 246 243 241 241 242 245 247 247 245 245 246 247 248 248 251 255 259 263 267 272 276 280 284 288 292 295 299 303 307 311 315 319 323 326 329 331 331 331 330 327 325 322 316 310 308 309 310 310 309 308 308 308 305 301 297 294 292 293 295 295 288 274 261 250 242 236 232 226 230 239 237 222 209 206 207 208
241 250 253 251 249 245 242 240 239 236 233 233 236 239 242 242 242 243 244 244 245 245 248 251 256 259 264 268 272 276 281 285 289 293 297 301 305 309 314 317 321 324 327 329 331 331 330 328 326 325 321 314 308 307 309 310 310 309 308 309 309 307 304 301 297 294 292 294 296 288 268 253 242 230 223 219 219 228 238 238 224 209 205 205 205
242 247 251 251 248 242 236 234 232 228 227 230 234 236 238 240 241 242 242 241 242 244 248 252 257 261 264 268 273 278 282 287 291 295 299 303 307 312 315 319 322 325 328 330 330 329 328 326 325 324 320 313 307 306 308 310 310 309 308 308 309 307 303 301 299 295 291 293 295 286 266 252 242 230 219 213 214 225 236 234 221 207 202 202 200
244 244 246 248 248 243 234 226 222 221 222 227 230 234 236 238 238 239 239 240 242 245 250 254 258 261 265 270 275 280 284 289 293 297 301 305 309 313 316 320 323 326 328 329 329 328 326 325 324 323 319 312 306 305 307 309 309 308 307 307 308 307 304 302 300 295 289 289 291 286 269 253 243 232 220 212 211 221 231 227 215 201 196 196 195
241 241 240 241 241 235 223 213 211 215 221 225 228 231 233 234 235 236 238 241 244 248 252 255 258 262 267 273 278 282 287 291 295 299 303 307 311 314 317 321 324 326 328 328 327 326 325 324 323 321 317 311 305 304 306 308 309 309 307 306 307 306 304 302 301 295 286 285 287 284 272 254 242 232 222 214 212 220 227 222 209 195 190 192 192
239 238 235 229 224 217 211 209 212 217 220 223 226 228 229 231 234 237 240 243 246 249 252 256 261 266 271 276 281 285 289 293 297 301 305 309 311 315 318 321 324 326 326 326 325 324 324 324 323 320 316 311 306 304 306 308 309 309 308 305 304 304 302 300 299 294 286 281 281 280 271 255 242 231 221 215 216 222 224 216 206 194 188 190 192
232 227 219 210 204 203 206 210 213 215 217 221 223 226 229 232 235 238 241 244 247 251 256 261 266 271 275 280 284 287 291 295 299 303 306 309 312 316 319 321 324 325 325 324 323 322 322 323 322 319 315 311 306 303 305 307 308 309 308 305 304 304 302 299 297 292 286 280 277 275 268 254 240 228 219 216 218 224 220 211 202 194 189 190 191